Weather History for Eagle River, WI

Change the Weather History Date:

Thursday, December 19, 2013

  Actual Average Record
Temperature  
Mean Temperature 10 °F -  
Max Temperature 20 °F 26 °F 42 °F (2002)
Min Temperature 1 °F 10 °F -9 °F (1991)
Degree Days  
Heating Degree Days 54    
Moisture  
Dew Point 9 °F    
Average Humidity 80    
Maximum Humidity 96    
Minimum Humidity 70    
Precipitation  
Precipitation 0.00 in - - ()
Sea Level Pressure  
Sea Level Pressure 29.92 in    
Wind  
Wind Speed 4 mph (NNE)    
Max Wind Speed 14 mph    
Max Gust Speed 23 mph    
Visibility 9 miles    
Events Snow    
Averages and records for this station are not official NWS values.
T = Trace of Precipitation, MM = Missing Value Source: NWS Daily Summary

Daily Weather History Graph

Daily Weather History Graph

Search for Another Location

Airport:

Trip Planner

Search our weather history database for the weather conditions in past years. The results will help you decide how hot, cold, wet, or windy it might be!

Date:

Astronomy

Dec. 19, 2013 Rise Set
Actual Time 7:34 AM CST 4:13 PM CST
Civil Twilight 7:00 AM CST 4:48 PM CST
Nautical Twilight 6:22 AM CST 5:26 PM CST
Astronomical Twilight 5:45 AM CST 6:02 PM CST
Moon 6:46 PM CST (12/19) 8:47 AM CST (12/19)
Length of Visible Light 9h 48m
Length of Day
8h 39m
Waning Gibbous, 95% of the Moon is Illuminated
Dec 19
Waning Gibbous
Dec 25
Last Quarter
Jan 1
New
Jan 7
First Quarter
Jan 15
Full

Hourly Weather History & Observations

Time (CST) Temp. Windchill Dew Point Humidity Pressure Visibility Wind Dir Wind Speed Gust Speed Precip Events Conditions
12:15 AM 4.3 °F - -0.0 °F 82% 29.67 in 10.0 mi Calm Calm - N/A   Clear
12:35 AM 4.1 °F - -0.2 °F 82% 29.68 in 10.0 mi Calm Calm - N/A   Clear
12:55 AM 2.5 °F - -2.0 °F 81% 29.68 in 10.0 mi Calm Calm - N/A   Clear
1:15 AM 3.0 °F - -1.7 °F 81% 29.69 in 10.0 mi Calm Calm - N/A   Clear
1:35 AM 3.4 °F - -0.9 °F 82% 29.70 in 10.0 mi Calm Calm - N/A   Clear
1:55 AM 3.4 °F - -0.8 °F 83% 29.71 in 10.0 mi Calm Calm - N/A   Clear
2:15 AM 1.9 °F - -2.6 °F 81% 29.72 in 10.0 mi Calm Calm - N/A   Clear
2:35 AM 6.4 °F - 2.7 °F 84% 29.74 in 10.0 mi Calm Calm - N/A   Clear
2:55 AM 12.9 °F - 10.2 °F 89% 29.75 in 10.0 mi Calm Calm - N/A   Clear
3:15 AM 14.0 °F - 11.3 °F 89% 29.75 in 10.0 mi Calm Calm - N/A   Clear
3:35 AM 13.6 °F - 10.4 °F 87% 29.76 in 10.0 mi Calm Calm - N/A   Mostly Cloudy
3:55 AM 15.8 °F 8.6 °F 13.3 °F 90% 29.78 in 10.0 mi NNW 4.6 mph - N/A   Overcast
4:15 AM 17.1 °F 10.0 °F 14.7 °F 91% 29.78 in 10.0 mi NNW 4.6 mph - N/A   Overcast
4:35 AM 18.0 °F 9.8 °F 16.7 °F 95% 29.77 in 10.0 mi North 5.8 mph - N/A   Overcast
4:55 AM 18.5 °F 13.3 °F 17.6 °F 96% 29.78 in 10.0 mi North 3.5 mph - N/A   Overcast
5:15 AM 18.5 °F 10.4 °F 16.9 °F 93% 29.79 in 10.0 mi North 5.8 mph - N/A   Overcast
5:35 AM 18.7 °F - 16.0 °F 89% 29.81 in 10.0 mi Calm Calm - N/A   Overcast
5:55 AM 18.9 °F - 15.8 °F 88% 29.82 in 10.0 mi Calm Calm - N/A   Overcast
6:15 AM 19.0 °F - 15.6 °F 87% 29.83 in 10.0 mi Calm Calm - N/A   Overcast
6:35 AM 19.2 °F 11.3 °F 15.8 °F 87% 29.84 in 10.0 mi NNW 5.8 mph - N/A   Overcast
6:55 AM 19.4 °F 12.8 °F 16.2 °F 87% 29.85 in 10.0 mi NNW 4.6 mph - N/A   Overcast
7:15 AM 19.8 °F 7.1 °F 16.5 °F 87% 29.85 in 10.0 mi North 12.7 mph - N/A   Overcast
7:35 AM 20.1 °F 8.1 °F 17.1 °F 88% 29.86 in 10.0 mi North 11.5 mph 21.9 mph N/A   Overcast
7:55 AM 20.3 °F 9.8 °F 17.1 °F 87% 29.87 in 10.0 mi North 9.2 mph 20.7 mph N/A   Overcast
8:15 AM 20.3 °F 7.7 °F 16.7 °F 86% 29.89 in 10.0 mi North 12.7 mph 19.6 mph N/A   Overcast
8:35 AM 20.3 °F 7.2 °F 15.8 °F 83% 29.91 in 10.0 mi North 13.8 mph 23.0 mph N/A   Overcast
8:55 AM 19.9 °F 6.7 °F 14.7 °F 80% 29.93 in 4.0 mi North 13.8 mph 20.7 mph N/A Snow Light Snow
9:15 AM 19.4 °F 10.4 °F 14.0 °F 80% 29.94 in 3.0 mi North 6.9 mph 16.1 mph N/A Snow Light Snow
9:35 AM 19.4 °F 10.4 °F 14.4 °F 81% 29.94 in 3.0 mi North 6.9 mph - N/A Snow Light Snow
9:55 AM 19.4 °F 7.2 °F 14.0 °F 80% 29.95 in 2.5 mi North 11.5 mph 16.1 mph N/A Snow Light Snow
10:15 AM 18.5 °F 6.1 °F 12.0 °F 76% 29.96 in 5.0 mi North 11.5 mph 18.4 mph N/A Snow Light Snow
10:35 AM 18.5 °F 6.1 °F 10.6 °F 71% 29.97 in 10.0 mi NNE 11.5 mph 20.7 mph N/A   Overcast
10:55 AM 18.1 °F 5.0 °F 9.9 °F 70% 29.99 in 10.0 mi North 12.7 mph 18.4 mph N/A   Overcast
11:15 AM 18.0 °F 4.8 °F 9.9 °F 71% 29.99 in 10.0 mi North 12.7 mph 17.3 mph N/A Snow Light Snow
11:35 AM 17.8 °F 5.9 °F 10.2 °F 72% 30.00 in 7.0 mi NNE 10.4 mph 16.1 mph N/A Snow Light Snow
11:55 AM 17.4 °F 7.1 °F 10.4 °F 74% 30.00 in 7.0 mi NNE 8.1 mph - N/A Snow Light Snow
12:15 PM 17.1 °F 5.0 °F 9.3 °F 72% 29.99 in 10.0 mi North 10.4 mph 17.3 mph N/A Snow Light Snow
12:35 PM 16.7 °F 3.8 °F 9.3 °F 73% 29.99 in 10.0 mi NNE 11.5 mph - N/A   Mostly Cloudy
12:55 PM 16.3 °F 6.7 °F 8.6 °F 72% 29.99 in 10.0 mi NNE 6.9 mph - N/A   Scattered Clouds
1:15 PM 15.8 °F 5.1 °F 8.4 °F 73% 29.99 in 10.0 mi NNE 8.1 mph - N/A   Scattered Clouds
1:35 PM 15.8 °F 6.1 °F 8.4 °F 73% 29.98 in 10.0 mi North 6.9 mph - N/A   Mostly Cloudy
1:55 PM 15.8 °F 5.1 °F 8.1 °F 72% 29.98 in 10.0 mi North 8.1 mph - N/A   Mostly Cloudy
2:15 PM 15.6 °F 4.9 °F 8.2 °F 73% 29.98 in 10.0 mi NNE 8.1 mph - N/A   Scattered Clouds
2:35 PM 15.4 °F 3.8 °F 8.4 °F 74% 29.98 in 10.0 mi NE 9.2 mph - N/A Snow Light Snow
2:55 PM 14.9 °F 4.0 °F 7.7 °F 73% 29.98 in 10.0 mi NNE 8.1 mph - N/A   Scattered Clouds
3:15 PM 14.9 °F 3.1 °F 7.7 °F 73% 29.98 in 10.0 mi NNE 9.2 mph - N/A   Clear
3:35 PM 14.5 °F 3.6 °F 7.7 °F 74% 29.98 in 10.0 mi NNE 8.1 mph - N/A   Mostly Cloudy
3:55 PM 14.5 °F 4.6 °F 7.7 °F 74% 29.99 in 10.0 mi NE 6.9 mph - N/A   Mostly Cloudy
4:15 PM 14.5 °F 4.6 °F 7.7 °F 74% 30.00 in 10.0 mi NNE 6.9 mph - N/A   Overcast
4:35 PM 14.4 °F - 7.7 °F 75% 30.01 in 10.0 mi Calm Calm - N/A   Overcast
4:55 PM 14.4 °F - 7.9 °F 75% 30.00 in 10.0 mi Calm Calm - N/A   Overcast
5:15 PM 14.0 °F - 7.7 °F 76% 30.01 in 10.0 mi Calm Calm - N/A   Overcast
5:35 PM 13.8 °F - 7.5 °F 76% 30.02 in 10.0 mi Calm Calm - N/A   Overcast
5:55 PM 13.5 °F 1.3 °F 6.8 °F 75% 30.02 in 10.0 mi NNE 9.2 mph - N/A   Overcast
6:15 PM 13.1 °F 0.1 °F 6.8 °F 76% 30.01 in 10.0 mi NNE 10.4 mph - N/A   Overcast
6:35 PM 12.9 °F 1.6 °F 6.8 °F 77% 30.02 in 10.0 mi NNE 8.1 mph - N/A   Overcast
6:55 PM 12.6 °F -1.4 °F 6.4 °F 77% 30.02 in 10.0 mi NE 11.5 mph - N/A   Overcast
7:15 PM 12.2 °F 0.7 °F 6.1 °F 76% 30.02 in 10.0 mi NE 8.1 mph - N/A   Overcast
7:35 PM 12.2 °F 0.7 °F 5.7 °F 75% 30.02 in 10.0 mi ENE 8.1 mph - N/A   Overcast
7:55 PM 12.2 °F 0.7 °F 5.9 °F 76% 30.03 in 10.0 mi ENE 8.1 mph - N/A   Overcast
8:15 PM 12.0 °F 0.5 °F 5.9 °F 76% 30.03 in 10.0 mi ENE 8.1 mph - N/A   Overcast
8:35 PM 12.0 °F 4.1 °F 6.3 °F 78% 30.02 in 10.0 mi ENE 4.6 mph - N/A   Overcast
8:55 PM 12.0 °F 1.5 °F 6.4 °F 78% 30.02 in 10.0 mi NE 6.9 mph - N/A   Overcast
9:15 PM 11.8 °F 0.3 °F 6.4 °F 79% 30.01 in 10.0 mi NE 8.1 mph - N/A   Overcast
9:35 PM 11.8 °F 3.9 °F 7.0 °F 81% 30.01 in 3.0 mi NE 4.6 mph - N/A Snow Light Snow
9:55 PM 11.7 °F - 7.2 °F 82% 30.01 in 4.0 mi Calm Calm - N/A Snow Light Snow
10:15 PM 11.7 °F - 7.3 °F 83% 30.01 in 2.0 mi Calm Calm - N/A Snow Light Snow
10:35 PM 11.7 °F - 7.5 °F 83% 30.00 in 3.0 mi Calm Calm - N/A Snow Light Snow
10:55 PM 11.7 °F - 7.3 °F 83% 30.00 in 3.0 mi Calm Calm - N/A Snow Light Snow
11:15 PM 11.7 °F - 6.8 °F 81% 30.00 in 3.0 mi Calm Calm - N/A Snow Light Snow
11:35 PM 11.7 °F 1.1 °F 7.0 °F 81% 29.99 in 1.8 mi NNE 6.9 mph - N/A Snow Light Snow
11:55 PM 11.3 °F - 7.0 °F 83% 29.99 in 1.8 mi Calm Calm - N/A Snow Light Snow